This demonstration page uses our WeatherBlox Daily Observations layout. Learn more.

Hourly Observations for February 21, 2017

Temp ( °F °C ) Dew Point ( °F °C ) Humidity (%) Winds ( mph kmh ) Pressure ( in mb ) Visibility ( mi km ) Precip ( " mm )
12:15 am 00:15 Clear 40 4.5 29 -1.6 65 65 SW 7 11 30.03 1017 10 16.0934 0 0
12:35 am 00:35 Clear 40 4.3 29 -1.5 66 66 SW 7 11 30.03 1017 10 16.0934 0 0
12:55 am 00:55 Clear 40 4.6 29 -1.6 64 64 SW 6 9 30.03 1017 10 16.0934 0 0
1:15 am 01:15 Clear 41 5 29 -1.7 62 62 SW 8 13 30.03 1017 10 16.0934 0 0
1:35 am 01:35 Clear 40 4.7 28 -2.1 62 62 SW 7 11 30.03 1017 10 16.0934 0 0
1:55 am 01:55 Clear 40 4.6 28 -2.2 62 62 SW 6 9 30.03 1017 10 16.0934 0 0
2:15 am 02:15 Clear 40 4.5 28 -2.5 61 61 SW 7 11 30.03 1017 10 16.0934 0 0
2:35 am 02:35 Clear 40 4.4 27 -2.6 61 61 SW 7 11 30.03 1017 10 16.0934 0 0
2:55 am 02:55 Clear 38 3.5 27 -2.7 64 64 SW 5 7 30.03 1017 10 16.0934 0 0
3:15 am 03:15 Clear 39 3.9 27 -2.7 62 62 SW 6 9 30.03 1017 10 16.0934 0 0
3:35 am 03:35 Clear 38 3.6 26 -3.1 62 62 SSW 7 11 30.03 1017 10 16.0934 0 0
3:55 am 03:55 Clear 38 3.5 26 -3.2 62 62 SW 6 9 30.03 1017 10 16.0934 0 0
4:15 am 04:15 Clear 39 4 26 -3.4 59 59 WSW 6 9 30.03 1017 10 16.0934 0 0
4:35 am 04:35 Clear 38 3.3 26 -3.5 61 61 SW 6 9 30.03 1017 10 16.0934 0 0
4:55 am 04:55 Clear 38 3.2 26 -3.6 61 61 S 5 7 30.03 1017 10 16.0934 0 0
5:15 am 05:15 Clear 36 2.3 25 -3.9 64 64 SSW 7 11 30.06 1018 10 16.0934 0 0
5:35 am 05:35 Clear 37 2.5 25 -3.8 64 64 SW 8 13 30.03 1017 10 16.0934 0 0
5:55 am 05:55 Clear 36 2.1 25 -4 64 64 SW 8 13 30.09 1019 10 16.0934 0 0
6:15 am 06:15 Clear 36 2.2 25 -4.1 63 63 SW 7 11 30.09 1019 10 16.0934 0 0
6:35 am 06:35 Clear 38 3.1 24 -4.2 59 59 SW 7 11 30.06 1018 10 16.0934 0 0
6:55 am 06:55 Clear 37 2.7 24 -4.5 59 59 SW 7 11 30.03 1017 10 16.0934 0 0
7:15 am 07:15 Clear 37 2.5 24 -4.5 60 60 SSW 8 13 30.09 1019 10 16.0934 0 0
7:35 am 07:35 Sunny 38 3.5 24 -4.5 56 56 SW 7 11 30.06 1018 10 16.0934 0 0
7:55 am 07:55 Sunny 40 4.7 24 -4.6 51 51 SW 8 13 30.06 1018 10 16.0934 0 0
8:15 am 08:15 Sunny 41 4.8 25 -4 53 53 SW 8 13 30.06 1018 10 16.0934 0 0
8:35 am 08:35 Sunny 44 6.5 25 -3.9 48 48 SW 7 11 30.03 1017 10 16.0934 0 0
8:55 am 08:55 Sunny 45 7 25 -4 46 46 SW 9 15 30.03 1017 10 16.0934 0 0
9:15 am 09:15 Sunny 46 8 25 -4 43 43 SW 12 19 30.03 1017 10 16.0934 0 0
9:35 am 09:35 Sunny 48 9.1 24 -4.3 39 39 SSW 12 19 29.97 1015 10 16.0934 0 0
9:55 am 09:55 Sunny 51 10.7 23 -5 33 33 SW 13 20 30 1016 10 16.0934 0 0
10:15 am 10:15 Sunny 53 11.7 22 -5.4 30 30 SW 15 24 30 1016 10 16.0934 0 0
10:35 am 10:35 Sunny 55 13 23 -5.2 28 28 SW 17 28 29.94 1014 10 16.0934 0 0
10:55 am 10:55 Sunny 56 13.6 24 -4.4 29 29 SW 17 28 29.94 1014 10 16.0934 0 0
11:15 am 11:15 Sunny 58 14.6 25 -4.1 27 27 SW 18 30 29.94 1014 10 16.0934 0 0
11:35 am 11:35 Sunny 60 15.7 25 -3.8 26 26 SW 14 22 29.91 1013 10 16.0934 0 0
11:55 am 11:55 Sunny 63 17 24 -4.3 23 23 SW 17 28 29.91 1013 10 16.0934 0 0
12:15 pm 12:15 Sunny 66 18.7 23 -4.8 20 20 SW 18 30 29.88 1012 10 16.0934 0 0
12:35 pm 12:35 Sunny 69 20.6 22 -5.6 17 17 SW 13 20 29.85 1011 10 16.0934 0 0
12:55 pm 12:55 Sunny 72 22.2 20 -6.6 14 14 SW 15 24 29.8 1009 10 16.0934 0 0
1:15 pm 13:15 Sunny 73 23 21 -6.1 14 14 WSW 8 13 29.8 1009 10 16.0934 0 0
1:35 pm 13:35 Sunny 75 23.7 24 -4.4 15 15 W 12 19 29.77 1008 10 16.0934 0 0
1:55 pm 13:55 Sunny 75 23.9 25 -4.1 15 15 W 14 22 29.77 1008 10 16.0934 0 0
2:15 pm 14:15 Sunny 76 24.2 25 -3.7 15 15 WNW 15 24 29.77 1008 10 16.0934 0 0
2:35 pm 14:35 Sunny 76 24.4 25 -4 15 15 W 15 24 29.77 1008 10 16.0934 0 0
2:55 pm 14:55 Sunny 76 24.5 25 -3.8 15 15 W 13 20 29.74 1007 10 16.0934 0 0
3:15 pm 15:15 Sunny 76 24.6 25 -3.7 15 15 W 12 19 29.74 1007 10 16.0934 0 0
3:35 pm 15:35 Sunny 77 25.1 26 -3.5 15 15 WSW 10 17 29.74 1007 10 16.0934 0 0
3:55 pm 15:55 Sunny 77 25.2 26 -3.5 15 15 W 14 22 29.68 1005 10 16.0934 0 0
4:15 pm 16:15 Sunny 78 25.4 24 -4.3 14 14 W 17 28 29.68 1005 10 16.0934 0 0
4:35 pm 16:35 Sunny 77 25.2 23 -4.8 13 13 W 16 26 29.68 1005 10 16.0934 0 0
4:55 pm 16:55 Sunny 77 25 23 -4.8 13 13 W 12 19 29.68 1005 10 16.0934 0 0
5:15 pm 17:15 Sunny 76 24.5 23 -4.9 14 14 W 12 19 29.71 1006 10 16.0934 0 0
5:35 pm 17:35 Sunny 74 23.6 23 -5 14 14 WSW 7 11 29.71 1006 10 16.0934 0 0
5:55 pm 17:55 Sunny 72 22.3 23 -5.1 16 16 SW 7 11 29.71 1006 10 16.0934 0 0
6:15 pm 18:15 Sunny 69 20.4 24 -4.5 18 18 SW 7 11 29.74 1007 10 16.0934 0 0
6:35 pm 18:35 Clear 65 18.6 24 -4.5 21 21 SSW 8 13 29.74 1007 10 16.0934 0 0
6:55 pm 18:55 Clear 63 17.3 24 -4.3 23 23 SSW 8 13 29.77 1008 10 16.0934 0 0
7:15 pm 19:15 Clear 61 16.3 24 -4.2 24 24 SSW 9 15 29.77 1008 10 16.0934 0 0
7:35 pm 19:35 Clear 61 16 24 -4.4 24 24 SSW 9 15 29.77 1008 10 16.0934 0 0
7:55 pm 19:55 Clear 62 16.6 24 -4.6 23 23 SW 8 13 29.77 1008 10 16.0934 0 0
8:15 pm 20:15 Clear 61 16 24 -4.5 24 24 SSW 8 13 29.74 1007 10 16.0934 0 0
8:35 pm 20:35 Clear 59 14.8 24 -4.2 27 27 SW 9 15 29.74 1007 10 16.0934 0 0
8:55 pm 20:55 Clear 58 14.6 24 -4.2 27 27 SSW 8 13 29.74 1007 10 16.0934 0 0
9:15 pm 21:15 Clear 55 13 25 -4 31 31 SSW 8 13 29.77 1008 10 16.0934 0 0
9:35 pm 21:35 Clear 58 14.2 24 -4.2 28 28 SSW 9 15 29.74 1007 10 16.0934 0 0
9:55 pm 21:55 Clear 55 12.5 25 -4.1 31 31 SSW 7 11 29.77 1008 10 16.0934 0 0
10:15 pm 22:15 Clear 54 12 25 -4 33 33 SSW 7 11 29.77 1008 10 16.0934 0 0
10:35 pm 22:35 Clear 54 12.1 25 -4 33 33 SW 8 13 29.77 1008 10 16.0934 0 0
10:55 pm 22:55 Clear 53 11.8 25 -3.8 34 34 SW 8 13 29.77 1008 10 16.0934 0 0
11:15 pm 23:15 Clear 51 10.8 25 -4 35 35 SW 7 11 29.77 1008 10 16.0934 0 0
11:35 pm 23:35 Clear 51 10.7 25 -4 36 36 SW 7 11 29.77 1008 10 16.0934 0 0
11:55 pm 23:55 Clear 52 11.2 25 -4 35 35 SW 7 11 29.77 1008 10 16.0934 0 0

Powered by AerisWeather